EW7868 Weather Reports


Display with metric or nautical units.
time (UTC)temp
F
wind
direction
speed
MPH
gust
MPH
rain 1hr
in
rain 24hr
in
rain mn
in
humidity
%
barometer
mb
20260905073633 79 279 0.0 1.0 0.00 0.00 0.00 95 1011.0
20260905073128 79 262 0.0 1.0 0.00 0.00 0.00 95 1010.9
20260905072627 80 237 0.0 0.0 0.00 0.00 0.00 94 1011.0
20260905072123 80 255 0.0 1.0 0.00 0.00 0.00 94 1010.9
20260905071619 80 294 0.0 1.0 0.00 0.00 0.00 94 1011.1
20260905071114 80 289 0.0 1.0 0.00 0.00 0.00 94 1011.1
20260905070610 80 255 0.0 2.0 0.00 0.00 0.00 94 1011.2
20260905070105 80 257 0.0 1.0 0.00 0.00 0.00 94 1010.9
20260905065603 80 216 0.0 2.0 0.00 0.00 0.00 94 1011.3
20260905065058 80 206 0.0 3.0 0.00 0.00 0.00 93 1011.2
20260905064553 80 208 2.0 2.0 0.00 0.00 0.00 93 1011.1
20260905064049 80 209 0.0 1.0 0.00 0.00 0.00 93 1011.3
20260905063547 80 212 0.0 2.0 0.00 0.00 0.00 93 1011.3
20260905063044 80 204 2.0 3.0 0.00 0.00 0.00 93 1011.2
20260905062539 80 200 0.0 3.0 0.00 0.00 0.00 94 1011.3
20260905062038 80 188 0.0 2.0 0.00 0.00 0.00 94 1011.2
20260905061534 80 195 0.0 2.0 0.00 0.00 0.00 95 1011.3
20260905061033 80 213 0.0 0.0 0.00 0.00 0.00 95 1011.3
20260905060529 80 213 0.0 0.0 0.00 0.00 0.00 94 1011.4
20260905060025 80 206 1.0 2.0 0.00 0.00 0.00 95 1011.2
20260905055523 80 209 0.0 0.0 0.00 0.00 0.00 94 1011.1
20260905055018 80 195 2.0 2.0 0.00 0.00 0.00 94 1011.4
20260905054514 80 203 0.0 2.0 0.00 0.00 0.00 94 1011.4
20260905054009 80 195 0.0 3.0 0.00 0.00 0.00 94 1011.0
20260905053503 80 200 3.0 3.0 0.00 0.00 0.00 94 1011.2
20260905052959 80 200 0.0 2.0 0.00 0.00 0.00 94 1011.3
20260905052459 81 190 0.0 2.0 0.00 0.00 0.00 93 1011.1
20260905051958 81 197 0.0 2.0 0.00 0.00 0.00 93 1011.2
20260905051454 81 198 0.0 2.0 0.00 0.00 0.00 93 1011.2
20260905050951 81 206 0.0 1.0 0.00 0.00 0.00 93 1011.3
20260905050446 80 195 0.0 2.0 0.00 0.00 0.00 93 1011.3
20260905045942 80 188 0.0 0.0 0.00 0.00 0.00 93 1011.3
20260905045438 81 188 0.0 2.0 0.00 0.00 0.00 93 1011.5
20260905044933 80 203 0.0 0.0 0.00 0.00 0.00 92 1011.5
20260905044433 81 195 0.0 0.0 0.00 0.00 0.00 91 1011.6
20260905043927 81 209 0.0 0.0 0.00 0.00 0.00 91 1011.4
20260905043426 81 209 0.0 0.0 0.00 0.00 0.00 90 1011.7
20260905042921 81 194 0.0 1.0 0.00 0.00 0.00 90 1011.5
20260905042416 81 206 0.0 2.0 0.00 0.00 0.00 89 1011.6
20260905041910 81 254 0.0 2.0 0.00 0.00 0.00 90 1011.6
20260905041407 81 262 0.0 1.0 0.00 0.00 0.00 89 1011.8
20260905040907 82 270 0.0 0.0 0.00 0.00 0.00 89 1011.6
20260905040401 82 270 0.0 2.0 0.00 0.00 0.00 89 1011.7
20260905035900 82 188 0.0 1.0 0.00 0.00 0.00 88 1011.9
20260905035355 82 243 0.0 0.0 0.00 0.00 0.00 88 1012.0
20260905034852 82 203 0.0 1.0 0.00 0.00 0.00 89 1011.9
20260905034348 82 270 0.0 0.0 0.00 0.00 0.00 88 1011.9
20260905033846 82 270 0.0 0.0 0.00 0.00 0.00 87 1011.9
20260905033342 82 206 0.0 2.0 0.00 0.00 0.00 88 1012.0
20260905032840 82 209 0.0 1.0 0.00 0.00 0.00 89 1011.8
20260905032336 82 195 0.0 0.0 0.00 0.00 0.00 89 1012.0
20260905031831 82 195 0.0 0.0 0.00 0.00 0.00 90 1011.7
20260905031327 82 195 0.0 0.0 0.00 0.00 0.00 90 1012.0
20260905030822 82 195 0.0 0.0 0.00 0.00 0.00 89 1012.0
20260905030318 82 195 0.0 0.0 0.00 0.00 0.00 89 1012.0
20260905025817 82 195 0.0 1.0 0.00 0.00 0.00 89 1011.9
20260905025312 82 209 0.0 0.0 0.00 0.00 0.00 88 1012.1
20260905024809 82 209 0.0 0.0 0.00 0.00 0.00 88 1011.8
20260905024304 82 209 0.0 0.0 0.00 0.00 0.00 88 1011.6
20260905023759 82 209 0.0 0.0 0.00 0.00 0.00 86 1011.7
20260905023254 82 209 0.0 0.0 0.00 0.00 0.00 86 1011.8
20260905022753 83 209 0.0 0.0 0.00 0.00 0.00 85 1011.6
20260905022249 83 209 0.0 0.0 0.00 0.00 0.00 84 1011.5
20260905021749 84 209 0.0 0.0 0.00 0.00 0.00 83 1011.4
20260905021243 84 216 0.0 0.0 0.00 0.00 0.00 83 1011.3
20260905020738 84 192 0.0 2.0 0.00 0.00 0.00 83 1011.3
20260905020233 84 209 0.0 1.0 0.00 0.00 0.00 84 1011.1
20260905015732 84 206 0.0 0.0 0.00 0.00 0.00 84 1011.1
20260905015227 84 206 0.0 0.0 0.00 0.00 0.00 83 1011.3
20260905014725 84 201 0.0 0.0 0.00 0.00 0.00 83 1011.3
20260905014221 84 195 0.0 1.0 0.00 0.00 0.00 83 1011.3
20260905013717 84 194 0.0 0.0 0.00 0.00 0.00 83 1011.1
20260905013213 84 194 0.0 0.0 0.00 0.00 0.00 83 1010.9
20260905012708 85 200 0.0 0.0 0.00 0.00 0.00 83 1011.0
20260905012204 85 200 0.0 2.0 0.00 0.00 0.00 82 1010.8
20260905011700 85 209 0.0 1.0 0.00 0.00 0.00 82 1010.9
20260905011156 85 198 0.0 0.0 0.00 0.00 0.00 82 1010.7
20260905010655 85 198 0.0 0.0 0.00 0.00 0.00 81 1010.7
20260905010151 86 198 0.0 2.0 0.00 0.00 0.00 80 1010.6
20260905005648 86 192 0.0 2.0 0.00 0.00 0.00 80 1010.4
20260905005143 86 225 2.0 2.0 0.00 0.00 0.00 81 1010.2
20260905004637 86 173 0.0 0.0 0.00 0.00 0.00 80 1010.6
20260905004132 86 173 0.0 1.0 0.00 0.00 0.00 79 1010.8
20260905003628 87 180 0.0 0.0 0.00 0.00 0.00 80 1010.8
20260905003123 87 180 0.0 0.0 0.00 0.00 0.00 78 1010.7
20260905002619 88 180 0.0 0.0 0.00 0.00 0.00 77 1010.8
20260905002114 88 180 0.0 0.0 0.00 0.00 0.00 77 1010.8
20260905001609 89 188 0.0 1.0 0.00 0.00 0.00 76 1010.6
20260905001108 89 203 0.0 1.0 0.00 0.00 0.00 75 1010.7
20260905000604 90 188 0.0 1.0 0.00 0.00 0.00 74 1010.5
20260905000100 91 194 0.0 1.0 0.00 0.00 0.00 72 1010.6
20260904235554 91 195 0.0 1.0 0.00 0.00 0.00 72 1010.7
20260904235053 93 180 0.0 1.0 0.00 0.00 0.00 70 1010.8
20260904234549 93 187 0.0 0.0 0.00 0.00 0.00 69 1010.9
20260904234044 93 187 0.0 2.0 0.00 0.00 0.00 69 1010.8
20260904233539 93 208 2.0 3.0 0.00 0.00 0.00 68 1010.8
20260904233035 94 206 0.0 2.0 0.00 0.00 0.00 67 1010.7
20260904232532 94 212 0.0 2.0 0.00 0.00 0.00 67 1010.6
20260904232028 94 194 1.0 3.0 0.00 0.00 0.00 67 1010.9
20260904231524 94 198 0.0 3.0 0.00 0.00 0.00 66 1010.9
20260904231018 95 194 3.0 4.0 0.00 0.00 0.00 65 1010.7
20260904230517 95 184 2.0 2.0 0.00 0.00 0.00 64 1010.6
20260904230014 95 203 3.0 3.0 0.00 0.00 0.00 65 1010.9
20260904225511 95 208 2.0 4.0 0.00 0.00 0.00 64 1011.0
20260904225010 95 204 3.0 4.0 0.00 0.00 0.00 64 1010.8
20260904224506 96 217 2.0 3.0 0.00 0.00 0.00 62 1010.8
20260904224005 96 303 2.0 4.0 0.00 0.00 0.00 61 1011.0
20260904223505 96 38 3.0 4.0 0.00 0.00 0.00 63 1010.9
20260904223001 96 195 2.0 4.0 0.00 0.00 0.00 63 1010.7
20260904222455 97 205 3.0 3.0 0.00 0.00 0.00 62 1011.0
20260904221950 97 250 0.0 4.0 0.00 0.00 0.00 62 1010.9
20260904221445 96 208 2.0 3.0 0.00 0.00 0.00 62 1010.6
20260904220940 96 209 3.0 4.0 0.00 0.00 0.00 63 1010.8
20260904220440 94 198 2.0 4.0 0.00 0.00 0.00 66 1010.8
20260904215935 94 210 2.0 5.0 0.00 0.00 0.00 66 1010.6
20260904215430 94 192 3.0 5.0 0.00 0.00 0.00 66 1010.8
20260904214926 94 197 2.0 4.0 0.00 0.00 0.00 65 1010.6
20260904214421 94 201 2.0 7.0 0.00 0.00 0.00 64 1010.6
20260904213921 95 194 3.0 4.0 0.00 0.00 0.00 63 1010.8
20260904213415 96 206 4.0 6.0 0.00 0.00 0.00 62 1010.7
20260904212911 96 191 3.0 5.0 0.00 0.00 0.00 65 1010.7
20260904212410 96 182 4.0 4.0 0.00 0.00 0.00 65 1010.7
20260904211906 95 215 1.0 6.0 0.00 0.00 0.00 64 1010.8
20260904211401 95 194 5.0 5.0 0.00 0.00 0.00 65 1010.8
20260904210856 96 203 2.0 4.0 0.00 0.00 0.00 65 1011.1
20260904210355 96 214 0.0 6.0 0.00 0.00 0.00 65 1011.2
20260904205852 96 203 1.0 5.0 0.00 0.00 0.00 65 1011.2
20260904205347 95 77 0.0 4.0 0.00 0.00 0.00 65 1011.3
20260904204844 95 246 2.0 8.0 0.00 0.00 0.00 64 1011.1
20260904204339 96 181 5.0 5.0 0.00 0.00 0.00 63 1011.2
20260904203836 96 201 2.0 3.0 0.00 0.00 0.00 63 1011.2
20260904203332 95 170 2.0 5.0 0.00 0.00 0.00 65 1011.5
20260904202827 94 345 1.0 3.0 0.00 0.00 0.00 65 1011.5
20260904202323 95 184 2.0 8.0 0.00 0.00 0.00 66 1011.5
20260904201819 96 190 2.0 5.0 0.00 0.00 0.00 66 1011.5
20260904201319 95 209 0.0 4.0 0.00 0.00 0.00 66 1011.3
20260904200814 95 75 3.0 5.0 0.00 0.00 0.00 66 1011.4
20260904200307 94 194 3.0 6.0 0.00 0.00 0.00 66 1011.5
20260904195808 95 184 0.0 4.0 0.00 0.00 0.00 69 1011.7
20260904195306 93 60 0.0 5.0 0.00 0.00 0.00 68 1011.7
20260904194801 94 66 0.0 4.0 0.00 0.00 0.00 68 1011.8
20260904194300 93 187 5.0 5.0 0.00 0.00 0.00 69 1011.9
20260904193755 92 47 5.0 7.0 0.00 0.00 0.00 68 1012.0
20260904193251 94 261 0.0 4.0 0.00 0.00 0.00 67 1012.2
20260904192746 93 183 0.0 7.0 0.00 0.00 0.00 70 1012.2
20260904192241 92 90 2.0 7.0 0.00 0.00 0.00 70 1012.3
20260904191738 92 172 1.0 8.0 0.00 0.00 0.00 70 1012.4
20260904191234 92 70 2.0 7.0 0.00 0.00 0.00 69 1012.6
20260904190730 92 165 0.0 4.0 0.00 0.00 0.00 69 1012.7
20260904190226 92 74 1.0 3.0 0.00 0.00 0.00 69 1012.6
20260904185722 91 83 4.0 8.0 0.00 0.00 0.00 70 1012.6
20260904185216 90 99 1.0 10.0 0.00 0.00 0.00 70 1012.6
20260904184715 91 100 6.0 7.0 0.00 0.00 0.00 70 1012.7
20260904184211 90 106 3.0 8.0 0.00 0.00 0.00 71 1012.7
20260904183707 89 68 2.0 8.0 0.00 0.00 0.00 72 1012.8
20260904183201 90 75 5.0 8.0 0.00 0.00 0.00 71 1013.0
20260904182657 89 107 5.0 9.0 0.00 0.00 0.00 71 1013.0
20260904182151 89 101 3.0 11.0 0.00 0.00 0.00 73 1013.0
20260904181648 89 87 4.0 9.0 0.00 0.00 0.00 73 1013.0
20260904181147 90 109 2.0 4.0 0.00 0.00 0.00 73 1013.1
20260904180642 89 84 3.0 8.0 0.00 0.00 0.00 72 1013.0
20260904180137 90 123 2.0 13.0 0.00 0.00 0.00 72 1013.5
20260904175636 89 99 0.0 9.0 0.00 0.00 0.00 72 1013.4
20260904175135 89 84 5.0 10.0 0.00 0.00 0.00 72 1013.5
20260904174630 89 107 2.0 5.0 0.00 0.00 0.00 73 1013.6
20260904174126 89 111 1.0 8.0 0.00 0.00 0.00 74 1013.7
20260904173622 89 103 5.0 6.0 0.00 0.00 0.00 73 1013.8
20260904173117 89 113 2.0 7.0 0.00 0.00 0.00 74 1013.5
20260904172613 89 104 3.0 7.0 0.00 0.00 0.00 74 1013.6
20260904172112 91 114 5.0 9.0 0.00 0.00 0.00 71 1013.9
20260904171607 92 102 0.0 4.0 0.00 0.00 0.00 66 1013.6
20260904171103 91 90 3.0 4.0 0.00 0.00 0.00 68 1014.1
20260904170558 91 78 5.0 5.0 0.00 0.00 0.00 66 1013.8
20260904170054 91 109 2.0 3.0 0.00 0.00 0.00 67 1013.8
20260904165553 91 77 1.0 3.0 0.00 0.00 0.00 69 1013.8
20260904165052 91 120 1.0 2.0 0.00 0.00 0.00 69 1013.8
20260904164547 91 66 0.0 2.0 0.00 0.00 0.00 69 1013.9
20260904164043 91 82 1.0 2.0 0.00 0.00 0.00 69 1013.9
20260904163543 90 90 2.0 3.0 0.00 0.00 0.00 69 1013.8
20260904163038 89 103 2.0 4.0 0.00 0.00 0.00 70 1013.8
20260904162532 91 99 0.0 2.0 0.00 0.00 0.00 68 1013.7
20260904162028 91 95 2.0 5.0 0.00 0.00 0.00 69 1013.7
20260904161523 90 77 0.0 2.0 0.00 0.00 0.00 71 1013.5
20260904161018 90 270 0.0 2.0 0.00 0.00 0.00 72 1013.6
20260904160513 89 18 0.0 2.0 0.00 0.00 0.00 71 1013.4
20260904160009 88 90 0.0 3.0 0.00 0.00 0.00 72 1013.4
20260904155503 89 331 1.0 3.0 0.00 0.00 0.00 69 1013.7
20260904155002 89 270 0.0 3.0 0.00 0.00 0.00 68 1013.4
20260904154456 89 295 2.0 3.0 0.00 0.00 0.00 70 1013.2
20260904153951 89 247 0.0 3.0 0.00 0.00 0.00 70 1013.3
20260904153446 89 99 0.0 3.0 0.00 0.00 0.00 72 1013.3
20260904152943 88 204 2.0 2.0 0.00 0.00 0.00 71 1013.3
20260904152438 88 203 0.0 3.0 0.00 0.00 0.00 72 1013.2
20260904151937 88 195 0.0 2.0 0.00 0.00 0.00 72 1013.1
20260904151433 89 239 0.0 2.0 0.00 0.00 0.00 72 1013.2
20260904150927 88 200 0.0 2.0 0.00 0.00 0.00 73 1013.0
20260904150422 88 337 1.0 2.0 0.00 0.00 0.00 72 1013.1
20260904145920 88 204 0.0 4.0 0.00 0.00 0.00 72 1012.8
20260904145417 87 180 0.0 4.0 0.00 0.00 0.00 74 1012.9
20260904144912 87 203 0.0 3.0 0.00 0.00 0.00 76 1013.0
20260904144407 88 279 1.0 2.0 0.00 0.00 0.00 73 1012.9
20260904143903 88 276 0.0 3.0 0.00 0.00 0.00 72 1012.8
20260904143400 87 259 0.0 4.0 0.00 0.00 0.00 74 1013.0
20260904142856 86 198 2.0 2.0 0.00 0.00 0.00 75 1012.9
20260904142351 86 263 1.0 2.0 0.00 0.00 0.00 76 1012.8
20260904141851 86 330 0.0 4.0 0.00 0.00 0.00 76 1012.9
20260904141347 85 206 2.0 3.0 0.00 0.00 0.00 77 1012.7
20260904140843 85 206 1.0 5.0 0.00 0.00 0.00 77 1012.9
20260904140337 85 208 3.0 3.0 0.00 0.00 0.00 77 1012.9
20260904135837 84 201 0.0 5.0 0.00 0.00 0.00 78 1012.7
20260904135332 84 196 0.0 3.0 0.00 0.00 0.00 79 1012.6
20260904134828 84 203 3.0 4.0 0.00 0.00 0.00 79 1012.8
20260904134327 83 278 0.0 3.0 0.00 0.00 0.00 80 1012.7
20260904133822 82 225 2.0 4.0 0.00 0.00 0.00 80 1012.9
20260904133318 82 239 2.0 4.0 0.00 0.00 0.00 79 1012.7
20260904132817 82 220 0.0 5.0 0.00 0.00 0.00 79 1012.7
20260904132313 82 286 0.0 3.0 0.00 0.00 0.00 81 1012.6
20260904131812 82 214 3.0 4.0 0.00 0.00 0.00 81 1012.8
20260904131308 82 228 0.0 3.0 0.00 0.00 0.00 81 1012.4
20260904130808 82 215 0.0 3.0 0.00 0.00 0.00 82 1012.3
20260904130307 81 206 3.0 3.0 0.00 0.00 0.00 81 1012.5
20260904125803 81 215 0.0 3.0 0.00 0.00 0.00 82 1012.2
20260904125259 81 209 0.0 2.0 0.00 0.00 0.00 82 1012.3
20260904124753 81 208 3.0 3.0 0.00 0.00 0.00 82 1012.1
20260904124250 81 216 0.0 3.0 0.00 0.00 0.00 82 1011.9
20260904123749 81 29 1.0 2.0 0.00 0.00 0.00 81 1011.9
20260904123245 81 209 0.0 3.0 0.00 0.00 0.00 82 1011.7
20260904122740 80 201 2.0 3.0 0.00 0.00 0.00 82 1011.6
20260904122233 80 195 1.0 2.0 0.00 0.00 0.00 82 1011.6
20260904121729 80 180 0.0 0.0 0.00 0.00 0.00 83 1011.5
20260904121225 79 203 1.0 1.0 0.00 0.00 0.00 84 1011.6
20260904120721 78 192 0.0 0.0 0.00 0.00 0.00 87 1011.5
20260904120217 77 200 0.0 3.0 0.00 0.00 0.00 89 1011.5
20260904115712 76 200 0.0 2.0 0.00 0.00 0.00 90 1011.1
20260904115212 75 206 0.0 2.0 0.00 0.00 0.00 91 1011.1
20260904114707 75 206 2.0 2.0 0.00 0.00 0.00 91 1011.4
20260904114207 75 261 0.0 2.0 0.00 0.00 0.00 91 1011.0
20260904113702 75 203 0.0 2.0 0.00 0.00 0.00 91 1011.1
20260904113201 75 198 1.0 2.0 0.00 0.00 0.00 91 1011.0
20260904112656 75 202 2.0 2.0 0.00 0.00 0.00 91 1011.0
20260904112152 75 190 2.0 3.0 0.00 0.00 0.00 91 1011.1
20260904111647 75 203 2.0 4.0 0.00 0.00 0.00 91 1011.2
20260904111143 75 201 2.0 2.0 0.00 0.00 0.00 92 1011.2
20260904110638 75 195 0.0 3.0 0.00 0.00 0.00 91 1011.2
20260904110137 75 198 2.0 3.0 0.00 0.00 0.00 91 1011.2
20260904105632 75 204 2.0 4.0 0.00 0.00 0.00 91 1011.2
20260904105127 75 201 2.0 3.0 0.00 0.00 0.00 91 1011.3
20260904104623 75 201 0.0 3.0 0.00 0.00 0.00 91 1011.3
20260904104118 75 194 2.0 3.0 0.00 0.00 0.00 91 1011.4
20260904103614 75 210 2.0 3.0 0.00 0.00 0.00 92 1011.4
20260904103110 75 203 0.0 2.0 0.00 0.00 0.00 91 1011.6
20260904102606 75 203 0.0 2.0 0.00 0.00 0.00 91 1011.6
20260904102100 76 203 1.0 2.0 0.00 0.00 0.00 91 1011.6
20260904101557 76 195 1.0 2.0 0.00 0.00 0.00 90 1011.6
20260904101052 76 194 0.0 2.0 0.00 0.00 0.00 90 1011.4
20260904100549 76 194 1.0 2.0 0.00 0.00 0.00 89 1011.5
20260904100043 76 206 1.0 3.0 0.00 0.00 0.00 89 1011.6
20260904095538 76 195 1.0 3.0 0.00 0.00 0.00 89 1011.6
20260904095033 76 188 0.0 3.0 0.00 0.00 0.00 89 1011.7
20260904094528 76 186 0.0 1.0 0.00 0.00 0.00 89 1011.5
20260904094023 76 203 0.0 2.0 0.00 0.00 0.00 90 1011.6
20260904093520 76 194 0.0 1.0 0.00 0.00 0.00 90 1011.8
20260904093015 76 203 1.0 2.0 0.00 0.00 0.00 91 1011.6
20260904092510 76 203 0.0 2.0 0.00 0.00 0.00 91 1011.8
20260904092007 76 195 0.0 0.0 0.00 0.00 0.00 91 1011.9
20260904091503 76 195 0.0 1.0 0.00 0.00 0.00 90 1011.9
20260904091002 76 195 0.0 1.0 0.00 0.00 0.00 90 1011.8
20260904090457 76 187 0.0 1.0 0.00 0.00 0.00 90 1011.8
20260904085952 77 187 0.0 2.0 0.00 0.00 0.00 90 1012.0
20260904085447 77 188 0.0 0.0 0.00 0.00 0.00 90 1011.9
20260904084942 77 203 0.0 1.0 0.00 0.00 0.00 90 1011.7
20260904084438 77 209 0.0 2.0 0.00 0.00 0.00 90 1011.7
20260904083933 77 200 1.0 1.0 0.00 0.00 0.00 90 1011.8
20260904083430 77 194 0.0 2.0 0.00 0.00 0.00 90 1011.6
20260904082925 77 195 0.0 2.0 0.00 0.00 0.00 90 1011.6
20260904082425 77 203 0.0 1.0 0.00 0.00 0.00 90 1011.4
20260904081920 77 196 0.0 3.0 0.00 0.00 0.00 90 1011.3
20260904081416 77 195 0.0 2.0 0.00 0.00 0.00 90 1011.5
20260904080912 77 165 0.0 3.0 0.00 0.00 0.00 90 1011.4
20260904080407 78 195 0.0 2.0 0.00 0.00 0.00 90 1011.1
20260904075903 78 200 0.0 3.0 0.00 0.00 0.00 90 1011.1
20260904075358 78 185 0.0 4.0 0.00 0.00 0.00 89 1011.1
20260904074857 78 208 2.0 3.0 0.00 0.00 0.00 89 1011.1
20260904074352 78 197 2.0 4.0 0.00 0.00 0.00 89 1011.0
20260904073847 78 203 0.0 3.0 0.00 0.00 0.00 89 1011.0